Theta_e
308 306 307 308 310 314 314 313 314 316 316 314 314 314 315 315 315 314 314 314 313 313 331 348 348 346 345 345 344 344 343 342 343 345 346 343 343 343 343 344 344 345 345 345
311 311 307 307 308 309 312 311 311 312 315 317 315 316 316 315 315 315 315 314 313 311 327 346 348 346 345 345 343 343 342 342 343 340 347 350 347 345 344 345 346 346 346 346
313 311 310 310 309 310 311 313 312 312 316 318 318 318 316 316 316 315 314 315 313 312 314 344 344 346 345 344 343 342 343 341 338 339 346 349 352 350 350 350 351 351 350 349
311 311 312 311 311 310 311 312 313 316 319 321 317 318 315 316 317 317 315 313 314 312 312 336 342 342 343 344 344 343 343 342 341 340 343 350 350 349 349 349 348 347 345 337
314 311 312 314 312 311 311 311 311 313 315 315 317 319 316 314 317 316 316 316 311 312 311 319 337 340 340 341 341 342 344 343 339 339 341 345 346 348 347 345 340 348 338 332
316 313 311 311 311 311 313 314 313 310 313 321 316 319 316 315 317 317 316 314 312 311 311 311 332 336 338 338 338 339 340 341 338 338 340 339 344 345 346 346 346 344 341 343
316 317 313 312 314 315 316 314 315 317 318 321 314 317 317 316 315 316 317 313 312 312 311 315 341 344 339 338 337 338 338 339 340 339 337 338 338 340 344 338 342 334 335 341
317 320 317 312 314 316 315 314 315 319 321 317 314 318 317 317 317 316 316 313 312 312 311 315 346 348 348 345 341 340 342 346 345 345 347 346 339 339 343 335 339 337 335 333
314 318 316 316 314 313 316 318 314 318 319 315 315 317 317 315 316 316 316 314 314 313 311 323 343 345 347 346 347 347 346 344 343 344 343 342 344 340 333 337 336 333 331 331
315 317 314 316 317 315 316 314 317 321 322 321 317 317 318 318 317 317 323 313 313 311 313 336 344 340 338 343 344 343 342 335 334 337 337 335 331 333 334 331 328 326 325 324
314 316 314 315 318 319 318 317 317 320 319 318 319 317 323 327 328 329 331 316 310 314 337 345 343 342 344 342 338 334 332 329 325 327 326 326 326 324 321 318 317 317 316 316
313 313 311 312 312 313 317 318 316 317 319 321 315 316 327 330 329 337 333 322 323 337 347 346 345 342 339 334 330 326 324 323 322 322 322 324 325 322 318 315 314 313 313 313
314 316 313 317 317 318 319 317 315 315 320 323 322 328 334 337 339 339 337 337 343 347 346 344 339 334 329 325 323 322 320 320 318 318 315 313 314 314 314 314 314 313 312 311
316 314 316 317 319 316 319 320 316 315 322 324 328 332 333 342 339 343 340 343 344 344 341 334 330 328 325 324 321 319 317 316 315 314 313 312 312 312 312 312 312 311 310 310
314 317 315 313 313 313 314 316 319 316 318 325 327 331 331 333 341 341 341 340 339 335 331 328 326 324 321 319 318 317 315 313 313 312 311 310 310 310 310 310 309 308 308 306
306 314 316 317 315 314 315 315 316 319 321 326 325 327 329 330 333 336 335 333 330 328 326 324 322 320 319 316 314 313 313 311 311 309 308 308 307 307 306 306 305 305 306 305
308 311 314 320 318 316 322 319 319 320 321 324 324 325 327 330 333 331 329 325 324 322 321 320 318 316 314 312 312 311 310 310 308 307 306 306 305 305 304 304 304 304 305 305
309 311 315 320 321 324 321 318 319 320 324 324 323 324 327 324 323 322 320 319 318 316 315 313 312 311 310 310 309 308 308 307 306 305 305 304 304 304 304 304 304 304 304 303
311 313 318 322 327 324 323 323 323 322 326 323 324 325 320 317 316 316 315 314 313 312 312 311 310 309 309 308 307 306 306 305 304 303 303 303 303 302 302 302 302 303 303 302
315 313 318 323 329 328 325 324 322 320 327 322 321 319 317 317 318 316 313 312 311 310 310 309 308 307 306 306 306 305 303 303 302 302 302 302 301 301 301 300 300 301 301 300
314 315 321 324 324 326 325 323 324 324 321 320 317 317 318 318 314 313 313 311 310 309 308 307 306 305 304 304 304 303 302 300 300 301 300 299 299 299 299 299 299 299 299 299
313 314 316 318 325 328 317 323 327 321 317 314 312 311 312 312 310 311 310 311 308 306 306 305 304 303 303 303 302 300 299 299 299 298 297 297 297 296 297 297 297 297 297 297
313 310 308 315 316 313 317 318 316 314 312 311 311 310 309 309 309 308 307 306 306 305 304 304 303 303 302 302 301 299 298 298 297 296 295 295 295 296 296 296 295 294 294 294
309 306 311 314 309 308 311 312 312 311 311 310 309 308 307 307 307 306 306 305 304 303 303 303 302 302 301 302 300 298 297 297 296 295 294 294 293 292 292 292 291 291 291 290
305 304 308 312 310 308 307 308 308 308 308 307 307 306 306 305 305 305 304 304 303 302 302 302 301 300 300 301 300 299 297 297 295 294 293 292 291 292 292 292 292 292 292 292
301 303 309 307 307 306 307 307 307 307 306 306 305 305 304 304 303 303 302 302 301 301 300 300 300 300 300 300 300 299 298 297 296 293 292 292 292 292 292 292 292 292 293 293
Wind_Speed
4 4 9 18 13 14 12 10 7 4 8 5 18 19 15 7 7 9 10 9 7 6 9 11 21 28 28 30 34 36 42 40 38 33 27 30 30 24 23 22 26 25 27 24
2 11 9 6 6 11 15 11 13 12 11 7 10 14 10 10 9 9 10 10 9 8 8 13 17 25 32 38 35 36 40 42 42 33 32 20 26 21 23 26 28 28 27 26
14 5 12 9 11 13 13 17 14 15 13 15 7 8 8 8 9 8 11 9 9 13 13 14 17 24 27 29 34 42 45 47 38 27 24 16 14 16 22 23 20 20 19 16
7 7 12 11 13 14 13 9 13 13 9 6 5 5 7 10 14 13 12 9 9 10 11 17 18 19 26 34 40 44 42 46 38 27 24 20 22 22 21 26 19 12 10 7
6 5 9 17 21 11 13 8 8 10 7 4 11 1 7 6 11 14 17 15 9 11 14 17 18 27 33 32 39 44 45 43 31 28 25 25 17 12 17 20 12 13 7 8
11 6 5 14 15 18 6 3 4 9 5 6 12 7 4 5 15 18 13 8 12 11 10 12 20 28 27 28 26 31 37 39 29 26 25 20 17 13 10 13 5 13 13 7
4 12 6 6 7 5 5 11 4 6 6 4 9 7 12 7 7 10 14 8 11 10 10 11 17 15 21 25 28 28 24 17 18 24 20 19 18 18 6 13 9 10 6 16
4 2 2 11 7 6 8 9 4 6 6 7 9 8 8 23 17 7 5 10 10 10 9 12 18 17 24 27 28 29 20 14 14 18 19 22 15 12 12 10 10 20 22 21
3 4 5 8 5 9 5 9 9 2 2 3 4 7 6 9 8 6 9 9 14 13 9 11 13 16 24 24 23 23 25 24 26 25 22 19 20 22 15 13 24 24 21 20
3 7 5 5 9 9 5 9 7 2 5 5 6 18 8 3 9 8 5 9 9 9 9 10 14 13 19 22 25 28 31 32 31 28 24 23 30 31 30 28 27 24 24 20
6 3 3 0 3 8 5 5 3 5 3 5 10 6 1 3 2 6 5 8 10 9 14 14 15 20 26 26 27 28 35 38 34 36 33 37 39 38 36 32 29 26 22 19
3 3 5 7 7 6 11 6 5 5 5 4 2 4 5 6 6 2 6 7 8 17 17 18 19 21 25 25 25 25 33 37 36 39 38 37 33 30 29 28 25 21 21 20
3 3 4 5 5 1 4 6 5 4 3 4 2 3 6 4 4 4 6 13 17 20 21 19 17 17 22 26 26 26 31 35 35 39 36 31 34 32 30 28 25 23 22 21
12 5 6 4 2 1 4 4 6 5 3 3 1 4 7 4 6 9 10 14 19 21 21 18 17 17 23 28 31 30 32 32 32 35 36 34 34 33 31 28 25 23 20 19
2 5 8 14 14 11 9 9 6 12 7 4 4 2 5 6 5 11 13 15 16 19 20 20 20 17 24 28 30 33 30 31 34 37 34 32 31 30 28 27 23 21 19 19
1 3 3 7 17 13 11 11 9 6 11 6 6 2 3 5 4 13 14 17 16 19 20 21 21 21 22 28 31 30 30 30 35 34 32 30 28 27 26 24 22 21 20 18
3 2 2 3 13 11 7 14 10 6 11 10 5 4 5 4 7 16 16 17 18 19 21 22 20 19 27 30 33 31 32 32 32 29 29 28 26 26 26 25 24 23 20 17
3 2 2 1 9 2 3 15 9 9 8 8 8 8 10 14 11 16 17 20 18 19 21 20 19 27 30 33 35 35 32 31 30 30 28 25 25 26 24 23 21 20 18 18
6 2 2 1 1 2 8 10 11 13 4 4 9 16 20 19 18 16 13 18 17 19 17 23 31 33 33 33 32 35 32 31 31 27 25 23 23 24 22 21 19 17 17 16
1 7 3 1 3 3 3 10 11 4 3 6 12 20 23 18 10 6 11 18 19 21 26 28 32 34 33 28 34 35 29 29 25 23 23 22 21 20 20 18 17 16 15 14
6 4 5 5 4 5 8 13 9 1 4 11 12 16 18 10 10 15 14 19 24 24 28 32 30 29 28 30 35 31 28 25 25 25 24 22 20 19 18 17 16 14 13 12
5 6 4 5 6 4 15 9 3 7 13 17 14 16 24 20 19 18 17 20 19 19 27 29 30 27 27 30 34 27 27 25 24 23 21 19 19 19 18 19 17 16 15 16
3 3 3 6 4 10 8 8 12 14 18 17 22 19 21 18 20 20 18 19 17 25 26 27 30 29 27 28 30 28 25 26 25 26 25 23 22 21 19 21 22 22 20 20
6 5 2 1 10 15 13 13 15 18 19 17 19 21 16 16 22 19 19 16 17 24 23 26 29 27 25 27 27 30 28 26 27 27 25 24 26 26 26 27 26 27 27 26
3 8 8 3 5 7 15 11 16 19 20 21 18 20 15 15 16 20 17 17 20 23 22 25 25 24 24 26 26 26 26 27 28 27 26 26 26 26 24 24 24 25 25 25
5 4 3 2 6 9 7 9 16 21 19 20 21 19 15 14 18 18 16 21 23 23 23 23 22 24 24 25 25 25 23 24 26 27 25 24 23 21 21 20 19 17 17 19
Wind_Direction
222 173 208 211 218 238 263 273 287 322 252 246 229 251 245 228 220 224 231 214 204 192 167 167 156 160 163 174 174 182 187 192 190 187 191 199 203 203 211 216 226 225 229 218
290 228 224 220 214 243 254 256 269 288 288 265 270 251 240 211 217 212 220 230 209 136 138 158 164 164 170 175 181 185 192 193 192 202 194 191 198 207 220 227 233 239 240 228
231 218 216 211 214 229 242 249 242 253 287 291 292 280 236 240 213 201 220 210 191 160 158 167 168 178 175 178 184 191 196 195 200 208 191 191 196 197 210 213 217 228 239 234
234 217 224 234 234 210 229 243 241 234 232 243 165 284 223 222 236 220 232 213 198 163 159 171 174 175 180 187 192 197 199 204 209 204 192 178 170 182 197 197 192 199 210 195
224 230 213 210 246 229 224 210 254 262 259 335 272 307 267 193 223 226 221 213 186 194 166 167 175 180 188 185 192 200 204 210 204 203 208 202 199 198 192 214 214 188 177 210
248 264 187 211 221 213 146 167 259 232 261 241 235 188 264 205 208 224 225 182 180 193 198 158 177 178 184 190 194 196 202 209 202 208 208 208 199 194 234 255 175 85 93 181
266 227 204 186 194 174 126 157 198 184 216 227 200 205 244 241 225 215 216 180 179 193 181 139 155 170 177 178 190 196 197 191 195 201 211 229 233 217 96 35 113 23 105 168
328 290 268 181 178 181 174 180 168 178 173 212 194 211 238 235 252 262 268 175 182 188 182 160 155 162 172 178 183 185 175 160 180 203 208 214 215 209 177 164 139 164 149 125
326 273 173 293 233 166 182 191 189 134 236 117 187 255 303 235 254 224 218 183 193 191 169 153 151 155 163 167 171 157 145 137 137 145 143 142 145 135 129 145 139 135 121 104
282 284 241 255 230 231 175 157 176 212 176 182 182 220 216 191 206 241 252 202 188 179 142 144 141 134 131 132 125 129 124 114 121 123 126 121 119 131 140 132 120 111 102 107
248 242 285 144 222 173 173 180 163 130 242 191 176 231 258 184 301 263 285 211 177 135 132 132 126 127 127 122 114 115 112 112 108 110 113 115 114 115 116 114 110 105 108 109
244 237 269 233 274 355 235 174 160 136 213 239 185 255 289 262 243 252 263 190 146 136 132 128 125 121 114 109 110 111 109 105 108 112 111 112 114 112 105 102 101 104 100 96
194 223 298 294 62 282 196 197 176 126 106 231 102 290 331 104 85 70 134 137 131 129 123 120 118 116 115 111 103 99 100 104 108 110 107 105 109 110 107 105 103 101 102 97
226 204 211 244 333 174 276 207 171 134 125 239 91 344 0 49 97 94 114 122 130 126 119 113 111 111 110 107 105 101 97 102 102 105 106 102 104 104 103 101 99 98 92 82
149 231 208 244 261 268 272 264 216 189 156 185 186 82 337 14 97 114 120 114 111 115 114 114 111 110 106 104 102 102 99 100 104 103 101 99 104 104 101 98 95 91 85 81
343 254 236 259 238 233 233 249 261 223 162 115 119 80 307 6 301 102 106 113 110 111 113 108 109 109 105 107 105 102 102 98 104 100 100 104 102 99 95 95 93 89 87 83
213 242 251 284 142 167 229 218 201 175 145 136 153 174 70 10 128 112 110 105 108 107 107 106 106 105 107 107 106 102 101 104 100 100 101 103 102 98 96 93 89 86 85 83
198 203 227 263 148 197 260 155 175 151 90 100 106 120 85 82 70 97 107 109 107 107 104 103 103 101 101 103 99 102 102 101 101 97 101 105 105 100 95 92 91 92 90 82
191 239 258 208 345 88 81 131 146 146 104 103 118 103 96 96 83 56 83 100 105 102 102 100 100 100 97 96 102 100 96 96 95 96 98 104 103 99 96 91 93 98 97 85
253 234 291 358 67 84 338 96 96 58 123 138 124 127 134 133 106 107 103 109 99 97 99 98 96 94 95 99 104 98 94 93 92 100 106 106 104 104 99 97 98 98 96 86
341 351 356 6 73 68 14 340 344 132 187 141 151 152 138 116 122 126 118 102 97 99 98 96 92 94 99 104 102 93 95 92 106 111 109 102 100 99 97 99 98 100 93 87
348 326 348 357 26 38 340 339 43 117 100 111 111 109 100 112 119 115 111 105 99 98 94 94 94 88 93 101 103 98 95 111 113 110 105 102 103 99 97 97 95 92 91 84
15 19 306 6 17 325 20 71 75 108 105 107 101 95 105 115 119 108 106 97 95 95 94 99 100 94 92 102 108 103 110 117 113 106 101 102 103 101 97 94 91 85 81 76
340 1 321 241 13 21 32 66 85 92 96 97 97 98 93 112 100 107 99 99 92 91 99 103 99 96 93 103 109 112 117 117 113 108 105 104 99 96 96 93 89 84 78 73
316 314 325 53 32 30 24 56 92 90 93 90 87 96 100 100 95 102 96 95 98 101 100 99 99 96 96 112 116 119 117 116 110 106 105 105 104 101 94 87 82 81 78 71
341 329 1 354 357 88 53 70 93 91 93 94 98 95 90 90 94 94 95 100 100 97 97 97 99 99 104 114 122 126 120 114 112 109 106 105 104 100 94 91 89 82 79 76